[[{"header":{"parameterUnit":"m.s-1","parameterCategory":1,"la1":30.2991,"la2":30.254,"lo1":-89.0895,"lo2":-89.0444,"dy":0.0017,"dx":0.0017,"nx":28,"ny":28,"refTime":"2025-08-30T09:00:00:Z","depth":0,"parameterNumber":2,"parameterNumberName":"U-component_of_WINDS"},"data":[0,0,0,0,0,0,0,0,0,0,0,0,0,0,0,0,0,0,0,0,0,0,0,0,0,0,0,0,0,0,0,0,0,0,0,0,0,0,0,0,0,0,0,0,0,0,0,0,0,0,0,0,0,0,0,0,0,0,-1.3973,-1.3972,0,-1.3903,-1.3903,-1.3902,-1.3854,-1.3854,-1.3853,-1.3853,-1.3779,-1.3778,-1.3776,0,0,0,0,0,0,0,0,0,0,0,0,0,-1.4063,-1.4062,-1.3973,-1.3972,-1.3971,-1.3904,-1.3903,-1.3902,-1.3854,-1.3854,-1.3853,-1.3853,-1.378,-1.3778,-1.3776,0,0,0,0,0,0,0,0,0,0,0,0,0,-1.4012,-1.4062,-1.3973,-1.394,-1.3936,-1.3904,-1.3903,-1.3901,-1.3854,-1.3854,-1.3853,-1.3853,-1.3781,-1.3778,-1.3776,-1.3771,0,0,-1.3768,-1.3767,0,0,0,0,0,0,0,0,-1.4015,-1.4009,-1.3945,-1.3942,-1.3938,-1.3887,-1.3907,-1.3858,-1.3854,-1.3885,-1.3853,-1.3852,-1.3816,-1.381,-1.3798,-1.3768,-1.3764,-1.3768,-1.3767,-1.3766,-1.3765,0,0,0,0,0,0,0,-1.4019,-1.4011,-1.3945,-1.3945,-1.394,-1.3927,-1.3919,-1.3898,-1.3854,-1.3882,-1.3879,-1.3871,-1.3813,-1.3801,-1.3796,-1.3763,-1.3768,-1.3766,-1.3764,-1.3764,-1.3724,-1.3725,0,0,0,0,0,0,-1.4028,-1.4015,-1.3948,-1.3943,-1.3976,-1.3926,-1.3917,-1.3904,-1.3854,-1.3846,-1.3872,-1.3869,-1.3805,-1.3799,-1.3793,-1.3783,-1.3766,-1.3763,-1.3762,-1.3724,-1.3724,-1.3725,0,0,0,0,0,0,-1.403,-1.4022,-1.395,-1.3978,-1.3968,-1.3925,-1.391,-1.3903,-1.389,-1.3846,-1.3838,-1.3867,-1.3804,-1.3797,-1.3777,-1.378,-1.3762,-1.376,-1.3723,-1.3724,-1.3725,-1.3764,0,0,0,0,0,0,-1.4033,-1.4023,-1.4021,-1.3978,-1.3967,-1.3936,-1.391,-1.3902,-1.3886,-1.3882,-1.3839,-1.3832,-1.3803,-1.3781,-1.3774,-1.3776,-1.3758,-1.3723,-1.3724,-1.3725,-1.3762,-1.3766,-1.3769,0,0,0,0,0,-1.4036,-1.4035,-1.4022,-1.4014,-1.3964,-1.3936,-1.3929,-1.3897,-1.3887,-1.3884,-1.3856,-1.3833,-1.3781,-1.3779,-1.3772,-1.3773,-1.3722,-1.3724,-1.3724,-1.376,-1.3765,-1.3769,0,0,0,0,0,0,-1.4078,-1.4029,-1.4013,-1.3998,-1.3972,-1.3928,-1.3924,-1.3903,-1.3879,-1.3876,-1.3837,-1.3828,-1.3811,-1.379,-1.3789,-1.3765,-1.3749,-1.3749,-1.3779,-1.3783,-1.3787,-1.3791,-1.3756,0,0,0,0,0,-1.4086,-1.4069,-1.4026,-1.4017,-1.4005,-1.3967,-1.3954,-1.3931,-1.3902,-1.389,-1.3861,-1.3833,-1.381,-1.3796,-1.3772,-1.376,-1.3749,-1.3757,-1.376,-1.3763,-1.3763,-1.3753,-1.3756,-1.3728,-1.3728,-1.3728,0,0,-1.4102,-1.4072,-1.4064,-1.4025,-1.4002,-1.3984,-1.3957,-1.394,-1.3926,-1.3887,-1.3866,-1.3844,-1.381,-1.3794,-1.3785,-1.3776,-1.3768,-1.3765,-1.3767,-1.3765,-1.3755,-1.3757,-1.376,-1.3729,-1.3729,-1.3729,0,0,-1.412,-1.4097,-1.4086,-1.4064,-1.403,-1.4005,-1.4002,-1.3962,-1.3946,-1.3924,-1.3895,-1.3878,-1.384,-1.3817,-1.38,-1.3811,-1.3789,-1.3804,-1.3822,-1.3813,-1.3815,-1.3817,-1.3819,-1.3821,-1.3804,-1.3805,-1.3805,0,-1.4143,-1.4116,-1.4083,-1.4067,-1.405,-1.4016,-1.4005,-1.3984,-1.3944,-1.3933,-1.3924,-1.3875,-1.385,-1.3827,-1.383,-1.3818,-1.3813,-1.3808,-1.3818,-1.3819,-1.382,-1.3822,-1.3823,-1.3807,-1.3806,-1.3806,-1.3806,0,-1.4145,-1.4126,-1.4122,-1.4084,-1.4067,-1.4054,-1.4019,-1.4005,-1.3985,-1.3961,-1.394,-1.3909,-1.3878,-1.3871,-1.3851,-1.3845,-1.3841,-1.3825,-1.3808,-1.3825,-1.3826,-1.3827,-1.3809,-1.3809,-1.3808,-1.3808,0,0,-1.4186,-1.4132,-1.4131,-1.4113,-1.4073,-1.4058,-1.4043,-1.4014,-1.4002,-1.3976,-1.3961,-1.3931,-1.3916,-1.3897,-1.3874,-1.3867,-1.3876,-1.3852,-1.3851,-1.3856,-1.3866,-1.3877,-1.3878,-1.3862,-1.3862,-1.3862,-1.3869,0,-1.4197,-1.4168,-1.4139,-1.412,-1.4102,-1.407,-1.4056,-1.403,-1.4008,-1.3988,-1.3963,-1.3941,-1.3925,-1.3913,-1.3904,-1.3877,-1.3877,-1.3876,-1.3847,-1.3846,-1.3854,-1.3879,-1.389,-1.3897,-1.3869,-1.3869,-1.3869,0,-1.4206,-1.4182,-1.4161,-1.4123,-1.4114,-1.4103,-1.4073,-1.4056,-1.4025,-1.4009,-1.3989,-1.3965,-1.3947,-1.3933,-1.3907,-1.3907,-1.3893,-1.3878,-1.3877,-1.3872,-1.3857,-1.3872,-1.3899,-1.39,-1.387,-1.387,-1.387,0,-1.4236,-1.4199,-1.4181,-1.4167,-1.4123,-1.4115,-1.4096,-1.4065,-1.405,-1.4024,-1.4014,-1.3987,-1.3971,-1.3951,-1.392,-1.3913,-1.3896,-1.388,-1.3881,-1.3882,-1.3877,-1.3877,-1.39,-1.3872,-1.3872,-1.3872,-1.3872,0,-1.425,-1.4238,-1.4194,-1.4183,-1.4169,-1.4136,-1.4122,-1.41,-1.4073,-1.4057,-1.4028,-1.4013,-1.3974,-1.3955,-1.3931,-1.3912,-1.3906,-1.3891,-1.3885,-1.3893,-1.3894,-1.3882,-1.388,-1.3872,-1.3872,-1.3872,-1.3872,0,-1.4281,-1.4251,-1.4229,-1.4189,-1.4179,-1.417,-1.4135,-1.4123,-1.41,-1.4079,-1.4073,-1.4035,-1.4011,-1.3979,-1.3944,-1.3928,-1.3911,-1.3902,-1.3922,-1.3917,-1.3919,-1.3919,-1.3933,-1.3933,-1.3907,-1.3907,-1.3907,0,-1.4291,-1.4281,-1.424,-1.4227,-1.4209,-1.419,-1.4174,-1.4141,-1.4125,-1.409,-1.4082,-1.4056,-1.4033,-1.3995,-1.3965,-1.3938,-1.3927,-1.3934,-1.3922,-1.3931,-1.3925,-1.3925,-1.3923,-1.3936,-1.3936,-1.3937,-1.3937,0,-1.4311,-1.4297,-1.4275,-1.4249,-1.4231,-1.4208,-1.4184,-1.4175,-1.4137,-1.4121,-1.4096,-1.4079,-1.4044,-1.4017,-1.3987,-1.3967,-1.3945,-1.3941,-1.394,-1.3947,-1.3958,-1.395,-1.3927,-1.394,-1.394,-1.394,-1.394,-1.394,-1.433,-1.432,-1.4289,-1.4266,-1.4245,-1.4223,-1.421,-1.4185,-1.4164,-1.4133,-1.4115,-1.4091,-1.4061,-1.4017,-1.3998,-1.3978,-1.397,-1.3968,-1.3967,-1.3967,-1.3969,-1.3963,-1.3973,-1.3973,-1.3973,-1.3972,-1.3972,0,-1.4348,-1.4327,-1.4306,-1.4274,-1.4255,-1.4239,-1.4211,-1.4197,-1.4176,-1.415,-1.4128,-1.4099,-1.4074,-1.4042,-1.4014,-1.4004,-1.3993,-1.3998,-1.3997,-1.3993,-1.3979,-1.3982,-1.4007,-1.4007,-1.4007,-1.4007,-1.4007,-1.4007,-1.4354,-1.4335,-1.4318,-1.4288,-1.4267,-1.4243,-1.4229,-1.4209,-1.4188,-1.4157,-1.4136,-1.4116,-1.4087,-1.4057,-1.4033,-1.4024,-1.4015,-1.4022,-1.401,-1.3997,-1.3994,-1.3991,-1.3993,-1.402,-1.402,-1.4025,-1.4025,-1.4025]},{"header":{"parameterUnit":"m.s-1","parameterCategory":1,"la1":30.2991,"la2":30.254,"lo1":-89.0895,"lo2":-89.0444,"dy":0.0017,"dx":0.0017,"nx":28,"ny":28,"refTime":"2025-08-30T09:00:00:Z","depth":0,"parameterNumber":3,"parameterNumberName":"V-component_of_WINDS"},"data":[0,0,0,0,0,0,0,0,0,0,0,0,0,0,0,0,0,0,0,0,0,0,0,0,0,0,0,0,0,0,0,0,0,0,0,0,0,0,0,0,0,0,0,0,0,0,0,0,0,0,0,0,0,0,0,0,0,0,-1.7042,-1.7044,0,-1.7187,-1.7188,-1.719,-1.7249,-1.7249,-1.7249,-1.7248,-1.7395,-1.7399,-1.7404,0,0,0,0,0,0,0,0,0,0,0,0,0,-1.6817,-1.6821,-1.7042,-1.7044,-1.7046,-1.7186,-1.7188,-1.719,-1.7249,-1.7249,-1.7249,-1.7248,-1.7394,-1.7399,-1.7404,0,0,0,0,0,0,0,0,0,0,0,0,0,-1.6933,-1.6822,-1.7042,-1.7092,-1.7098,-1.7186,-1.7188,-1.7191,-1.7249,-1.7249,-1.7248,-1.7248,-1.7392,-1.7398,-1.7405,-1.7453,0,0,-1.7424,-1.7427,0,0,0,0,0,0,0,0,-1.6926,-1.6941,-1.7083,-1.7089,-1.7096,-1.72,-1.7163,-1.7279,-1.7249,-1.7192,-1.7248,-1.7248,-1.733,-1.7342,-1.737,-1.746,-1.7466,-1.7424,-1.7428,-1.7431,-1.7433,0,0,0,0,0,0,0,-1.6918,-1.6935,-1.7099,-1.7085,-1.7093,-1.7107,-1.7123,-1.7185,-1.7262,-1.7197,-1.7201,-1.7218,-1.7334,-1.7364,-1.7374,-1.7468,-1.7424,-1.743,-1.7434,-1.7436,-1.7607,-1.7607,0,0,0,0,0,0,-1.6902,-1.6928,-1.7095,-1.7104,-1.7008,-1.7112,-1.713,-1.7167,-1.7262,-1.7276,-1.7218,-1.722,-1.7353,-1.7366,-1.7379,-1.7443,-1.7431,-1.7437,-1.744,-1.7606,-1.7607,-1.7607,0,0,0,0,0,0,-1.6897,-1.6916,-1.7089,-1.7017,-1.704,-1.7116,-1.7157,-1.717,-1.72,-1.7278,-1.7292,-1.7235,-1.7353,-1.737,-1.7435,-1.7449,-1.744,-1.7445,-1.7605,-1.7606,-1.7607,-1.757,0,0,0,0,0,0,-1.689,-1.6914,-1.6933,-1.7017,-1.7044,-1.7142,-1.7158,-1.7173,-1.721,-1.7214,-1.7297,-1.731,-1.7354,-1.7425,-1.7441,-1.7457,-1.745,-1.7604,-1.7605,-1.7607,-1.757,-1.7569,-1.7569,0,0,0,0,0,-1.6882,-1.6916,-1.6934,-1.6954,-1.707,-1.7142,-1.7158,-1.7208,-1.7211,-1.7231,-1.7282,-1.7307,-1.7445,-1.7431,-1.7449,-1.7468,-1.7603,-1.7605,-1.7607,-1.757,-1.7569,-1.7569,0,0,0,0,0,0,-1.6831,-1.6928,-1.6949,-1.7012,-1.7068,-1.7152,-1.7179,-1.7206,-1.7262,-1.7264,-1.7324,-1.7342,-1.7401,-1.7441,-1.7424,-1.752,-1.7526,-1.7531,-1.7492,-1.7492,-1.7491,-1.748,-1.7456,0,0,0,0,0,-1.6828,-1.6879,-1.6961,-1.7008,-1.7036,-1.7102,-1.7136,-1.717,-1.7231,-1.7255,-1.731,-1.7368,-1.7425,-1.7461,-1.7517,-1.7576,-1.7595,-1.7598,-1.7597,-1.7597,-1.76,-1.7636,-1.7638,-1.7613,-1.7613,-1.7613,0,0,-1.682,-1.6879,-1.6908,-1.7,-1.7048,-1.7099,-1.7122,-1.7175,-1.7214,-1.7263,-1.7328,-1.737,-1.7439,-1.7501,-1.7531,-1.7536,-1.7612,-1.7599,-1.7597,-1.7602,-1.7638,-1.764,-1.7642,-1.7614,-1.7614,-1.7614,0,0,-1.6833,-1.6883,-1.6928,-1.6976,-1.7049,-1.7093,-1.7104,-1.7184,-1.7214,-1.728,-1.7318,-1.7365,-1.7461,-1.7509,-1.7546,-1.7578,-1.7604,-1.7595,-1.7591,-1.7625,-1.7627,-1.7629,-1.7641,-1.7644,-1.7598,-1.7598,-1.7598,0,-1.6814,-1.6894,-1.6948,-1.7,-1.7039,-1.7087,-1.7133,-1.7177,-1.7264,-1.729,-1.7295,-1.7417,-1.7466,-1.7541,-1.7549,-1.7577,-1.7591,-1.7585,-1.7622,-1.7625,-1.7628,-1.7639,-1.7644,-1.7597,-1.7597,-1.7597,-1.7597,0,-1.6867,-1.6922,-1.695,-1.7034,-1.7076,-1.7125,-1.7187,-1.7223,-1.7254,-1.7298,-1.7364,-1.7426,-1.7496,-1.7516,-1.7546,-1.7595,-1.7596,-1.7611,-1.7617,-1.7627,-1.764,-1.7645,-1.7594,-1.7595,-1.7595,-1.7596,0,0,-1.6851,-1.6965,-1.6974,-1.7013,-1.7098,-1.7141,-1.7192,-1.7261,-1.7291,-1.735,-1.7395,-1.7475,-1.749,-1.7532,-1.7568,-1.7597,-1.762,-1.7609,-1.7611,-1.7609,-1.7678,-1.7666,-1.767,-1.7638,-1.7639,-1.764,-1.7672,0,-1.6875,-1.6969,-1.702,-1.7093,-1.7144,-1.7191,-1.7236,-1.7292,-1.7335,-1.7385,-1.7432,-1.7488,-1.7502,-1.7528,-1.7559,-1.761,-1.7634,-1.7609,-1.768,-1.7682,-1.7661,-1.7677,-1.7664,-1.7692,-1.7677,-1.7678,-1.7679,0,-1.6916,-1.6975,-1.7052,-1.7132,-1.7155,-1.7194,-1.7262,-1.7309,-1.7375,-1.7404,-1.7451,-1.7487,-1.7543,-1.7546,-1.7625,-1.7606,-1.7639,-1.7668,-1.767,-1.7679,-1.768,-1.7685,-1.7702,-1.7706,-1.7687,-1.7686,-1.7685,0,-1.6897,-1.6995,-1.7055,-1.7087,-1.718,-1.7207,-1.7247,-1.7312,-1.7351,-1.741,-1.7436,-1.75,-1.7536,-1.7585,-1.7638,-1.7636,-1.7712,-1.7719,-1.7737,-1.7736,-1.7751,-1.7749,-1.7772,-1.7772,-1.7772,-1.7772,-1.7771,0,-1.6918,-1.6964,-1.7047,-1.7084,-1.7137,-1.7195,-1.7246,-1.729,-1.7348,-1.7394,-1.7438,-1.748,-1.7548,-1.7598,-1.764,-1.7699,-1.7715,-1.774,-1.775,-1.7736,-1.7732,-1.7757,-1.7757,-1.7773,-1.7772,-1.7772,-1.7772,0,-1.6905,-1.6963,-1.7031,-1.7115,-1.7137,-1.7172,-1.7244,-1.7281,-1.7327,-1.7384,-1.7401,-1.7472,-1.7534,-1.7592,-1.7675,-1.7703,-1.7763,-1.7776,-1.774,-1.7746,-1.7761,-1.7759,-1.7802,-1.781,-1.7803,-1.7803,-1.7803,0,-1.6915,-1.6952,-1.7039,-1.7074,-1.7113,-1.7168,-1.7207,-1.7266,-1.7306,-1.7384,-1.7412,-1.7477,-1.7533,-1.763,-1.7689,-1.7753,-1.7769,-1.7779,-1.7778,-1.7763,-1.7769,-1.7766,-1.777,-1.7778,-1.7778,-1.7777,-1.7777,0,-1.6926,-1.6954,-1.7009,-1.7075,-1.7121,-1.7176,-1.7232,-1.7258,-1.7327,-1.737,-1.7434,-1.7477,-1.7562,-1.7627,-1.7698,-1.7739,-1.777,-1.7777,-1.7785,-1.777,-1.7748,-1.776,-1.7738,-1.7776,-1.7776,-1.7776,-1.7776,-1.7776,-1.6926,-1.696,-1.7028,-1.7089,-1.7137,-1.7189,-1.7228,-1.7279,-1.7334,-1.7408,-1.7439,-1.7504,-1.757,-1.7668,-1.771,-1.7762,-1.7769,-1.7779,-1.7782,-1.7784,-1.7781,-1.774,-1.7775,-1.7775,-1.7775,-1.7775,-1.7776,0,-1.6939,-1.6985,-1.7041,-1.7118,-1.7166,-1.7191,-1.7255,-1.7293,-1.735,-1.7409,-1.7463,-1.7537,-1.76,-1.7665,-1.7732,-1.7761,-1.7777,-1.7777,-1.7775,-1.7784,-1.7771,-1.7758,-1.7763,-1.7763,-1.7763,-1.7763,-1.7763,-1.7763,-1.6952,-1.7013,-1.7048,-1.7133,-1.7179,-1.7243,-1.7277,-1.7325,-1.7373,-1.7454,-1.7507,-1.7548,-1.761,-1.7681,-1.7741,-1.7758,-1.7781,-1.7776,-1.7798,-1.7784,-1.7785,-1.7785,-1.7773,-1.7781,-1.7781,-1.7806,-1.7806,-1.7806]}]]